Winchester, VA

8:56 PM EDT on April 25, 2017 (GMT -0400)
Winchester Regional

Weather History for KOKV - October, 2011

Change the Weather History Date:

Monday, October 3, 2011

  Actual Average Record
Temperature  
Mean Temperature 46 °F -  
Max Temperature 50 °F 69 °F 89 °F (1986)
Min Temperature 42 °F 48 °F 32 °F (2003)
Degree Days  
Heating Degree Days 19    
Moisture  
Dew Point 46 °F    
Average Humidity 97    
Maximum Humidity 100    
Minimum Humidity 93    
Precipitation  
Precipitation 0.08 in - - ()
Sea Level Pressure  
Sea Level Pressure 30.03 in    
Wind  
Wind Speed 2 mph (SW)    
Max Wind Speed 6 mph    
Max Gust Speed -    
Visibility 9 miles    
Events Rain    
Averages and records for this station are not official NWS values.
T = Trace of Precipitation, MM = Missing Value Source: NWS Daily Summary

Daily Weather History Graph

Daily Weather History Graph

Search for Another Location

Airport or City:

Trip Planner

Search our weather history database for the weather conditions in past years. The results will help you decide how hot, cold, wet, or windy it might be!

Date:

Astronomy

Oct. 03, 2011 Rise Set
Actual Time 7:10 AM EDT 6:52 PM EDT
Civil Twilight 6:43 AM EDT 7:19 PM EDT
Nautical Twilight 6:12 AM EDT 7:50 PM EDT
Astronomical Twilight 5:41 AM EDT 8:21 PM EDT
Moon 2:04 PM EDT (10/3) 11:55 PM EDT (10/3)
Length of Visible Light 12h 35m
Length of Day
11h 42m
Waxing Crescent, 45% of the Moon is Illuminated
Oct 3
Waxing Crescent
Oct 3
First Quarter
Oct 11
Full
Oct 19
Last Quarter
Oct 26
New

Hourly Weather History & Observations

Time (EDT) Temp. Windchill Dew Point Humidity Pressure Visibility Wind Dir Wind Speed Gust Speed Precip Events Conditions
12:15 AM 44.6 °F - 44.6 °F 100% 29.95 in 10.0 mi Calm Calm - N/A   Drizzle
12:35 AM 44.6 °F - 44.6 °F 100% 29.94 in 10.0 mi Calm Calm - 0.01 in   Light Drizzle
12:55 AM 44.6 °F - 44.6 °F 100% 29.94 in 10.0 mi Calm Calm - 0.01 in   Overcast
1:15 AM 44.6 °F 43.1 °F 44.6 °F 100% 29.94 in 10.0 mi West 3.5 mph - N/A   Mostly Cloudy
1:35 AM 44.6 °F 43.1 °F 42.8 °F 93% 29.94 in 10.0 mi West 3.5 mph - N/A   Mostly Cloudy
1:55 AM 44.6 °F - 42.8 °F 93% 29.94 in 10.0 mi Calm Calm - N/A   Overcast
2:15 AM 44.6 °F - 42.8 °F 93% 29.94 in 10.0 mi Calm Calm - N/A   Overcast
2:35 AM 44.6 °F 43.1 °F 42.8 °F 93% 29.94 in 10.0 mi SW 3.5 mph - N/A   Overcast
2:55 AM 44.6 °F 42.2 °F 42.8 °F 93% 29.94 in 10.0 mi West 4.6 mph - N/A   Overcast
3:15 AM 44.6 °F - 42.8 °F 93% 29.94 in 10.0 mi Calm Calm - N/A   Overcast
3:55 AM 44.6 °F - 42.8 °F 93% 29.95 in 10.0 mi Calm Calm - N/A   Overcast
4:15 AM 44.6 °F - 42.8 °F 93% 29.95 in 10.0 mi Calm Calm - N/A   Overcast
4:35 AM 44.6 °F 42.2 °F 42.8 °F 93% 29.95 in 10.0 mi West 4.6 mph - N/A   Overcast
4:55 AM 44.6 °F 43.1 °F 42.8 °F 93% 29.96 in 10.0 mi West 3.5 mph - N/A   Overcast
5:15 AM 44.6 °F 41.4 °F 42.8 °F 93% 29.96 in 10.0 mi West 5.8 mph - N/A   Drizzle
5:35 AM 44.6 °F 43.1 °F 42.8 °F 93% 29.97 in 10.0 mi West 3.5 mph - N/A Rain Rain
5:55 AM 44.6 °F 42.2 °F 42.8 °F 93% 29.97 in 10.0 mi West 4.6 mph - N/A Rain Light Rain
6:15 AM 44.6 °F 42.2 °F 42.8 °F 93% 29.98 in 10.0 mi West 4.6 mph - 0.01 in Rain Light Rain
6:35 AM 44.6 °F 43.1 °F 42.8 °F 93% 29.98 in 10.0 mi WSW 3.5 mph - 0.01 in Rain Light Rain
6:55 AM 44.6 °F 42.2 °F 42.8 °F 93% 29.99 in 10.0 mi WSW 4.6 mph - 0.02 in Rain Light Rain
7:15 AM 42.8 °F 41.1 °F 42.8 °F 100% 29.99 in 10.0 mi WSW 3.5 mph - 0.01 in   Drizzle
7:35 AM 44.6 °F 43.1 °F 42.8 °F 93% 30.00 in 10.0 mi WSW 3.5 mph - 0.01 in   Drizzle
7:55 AM 44.6 °F 43.1 °F 42.8 °F 93% 30.00 in 10.0 mi SW 3.5 mph - 0.01 in Rain Rain
8:15 AM 44.6 °F 43.1 °F 44.6 °F 100% 30.00 in 10.0 mi SW 3.5 mph - N/A   Drizzle
8:35 AM 44.6 °F 43.1 °F 44.6 °F 100% 30.01 in 10.0 mi SW 3.5 mph - N/A   Drizzle
8:55 AM 44.6 °F 43.1 °F 44.6 °F 100% 30.02 in 10.0 mi WSW 3.5 mph - 0.01 in Rain Rain
9:15 AM 44.6 °F 43.1 °F 44.6 °F 100% 30.02 in 10.0 mi SSW 3.5 mph - N/A Rain Rain
9:35 AM 44.6 °F 43.1 °F 44.6 °F 100% 30.03 in 7.0 mi SW 3.5 mph - N/A   Drizzle
9:55 AM 44.6 °F 43.1 °F 44.6 °F 100% 30.03 in 7.0 mi SSW 3.5 mph - N/A   Drizzle
10:15 AM 44.6 °F - 44.6 °F 100% 30.04 in 10.0 mi Calm Calm - N/A   Overcast
10:35 AM 44.6 °F 42.2 °F 44.6 °F 100% 30.04 in 10.0 mi SW 4.6 mph - N/A Rain Light Rain
10:55 AM 44.6 °F 43.1 °F 44.6 °F 100% 30.05 in 4.0 mi SSW 3.5 mph - N/A   Drizzle
11:15 AM 46.4 °F 44.3 °F 46.4 °F 100% 30.05 in 3.0 mi SW 4.6 mph - N/A   Drizzle
11:55 AM 46.4 °F 44.3 °F 46.4 °F 100% 30.05 in 3.0 mi SSW 4.6 mph - N/A   Drizzle
12:15 PM 46.4 °F 43.5 °F 46.4 °F 100% 30.05 in 10.0 mi SSW 5.8 mph - N/A   Overcast
12:35 PM 46.4 °F 44.3 °F 46.4 °F 100% 30.04 in 10.0 mi SSW 4.6 mph - N/A   Overcast
12:55 PM 46.4 °F 43.5 °F 46.4 °F 100% 30.05 in 10.0 mi South 5.8 mph - N/A   Overcast
1:15 PM 48.2 °F - 46.4 °F 93% 30.05 in 10.0 mi SSW 4.6 mph - N/A   Overcast
1:35 PM 50.0 °F - 48.2 °F 94% 30.04 in 10.0 mi SW 4.6 mph - N/A   Overcast
1:55 PM 50.0 °F - 48.2 °F 94% 30.04 in 10.0 mi SSW 4.6 mph - N/A   Overcast
2:15 PM 50.0 °F - 48.2 °F 94% 30.04 in 10.0 mi SSW 4.6 mph - N/A   Overcast
2:35 PM 50.0 °F - 48.2 °F 94% 30.04 in 10.0 mi SSW 5.8 mph - N/A   Overcast
2:55 PM 50.0 °F - 48.2 °F 94% 30.05 in 10.0 mi SSW 5.8 mph - N/A   Overcast
3:15 PM 50.0 °F - 48.2 °F 94% 30.05 in 10.0 mi SSW 5.8 mph - N/A Rain Rain
3:35 PM 50.0 °F - 50.0 °F 100% 30.05 in 10.0 mi SW 4.6 mph - N/A   Overcast
4:15 PM 50.0 °F - 50.0 °F 100% 30.05 in 7.0 mi SW 4.6 mph - 0.01 in Rain Light Rain
4:35 PM 50.0 °F - 50.0 °F 100% 30.05 in 7.0 mi Calm Calm - 0.01 in Rain Light Rain
4:55 PM 50.0 °F - 50.0 °F 100% 30.06 in 5.0 mi WSW 3.5 mph - 0.02 in   Drizzle
5:15 PM 50.0 °F - 50.0 °F 100% 30.05 in 10.0 mi SW 4.6 mph - N/A   Overcast
5:35 PM 50.0 °F - 50.0 °F 100% 30.06 in 10.0 mi SSW 3.5 mph - N/A   Overcast
5:55 PM 50.0 °F - 50.0 °F 100% 30.06 in 10.0 mi SW 3.5 mph - N/A   Overcast
6:15 PM 50.0 °F - 50.0 °F 100% 30.06 in 4.0 mi SSW 3.5 mph - N/A Rain Heavy Rain
6:35 PM 50.0 °F - 50.0 °F 100% 30.07 in 7.0 mi Calm Calm - N/A   Drizzle
6:55 PM 50.0 °F - 50.0 °F 100% 30.07 in 10.0 mi South 3.5 mph - N/A   Light Drizzle
7:15 PM 50.0 °F - 50.0 °F 100% 30.08 in 10.0 mi Calm Calm - N/A   Overcast
7:35 PM 50.0 °F - 50.0 °F 100% 30.08 in 10.0 mi Calm Calm - N/A Rain Light Rain
7:55 PM 50.0 °F - 50.0 °F 100% 30.09 in 7.0 mi Calm Calm - N/A Rain Light Rain
8:35 PM 50.0 °F - 50.0 °F 100% 30.09 in 5.0 mi Calm Calm - N/A   Drizzle
8:55 PM 50.0 °F - 50.0 °F 100% 30.09 in 5.0 mi Calm Calm - N/A   Overcast
9:35 PM 50.0 °F - 50.0 °F 100% 30.10 in 7.0 mi Calm Calm - 0.01 in   Overcast
9:55 PM 50.0 °F - 50.0 °F 100% 30.10 in 7.0 mi Calm Calm - 0.01 in   Overcast
10:15 PM 50.0 °F - 50.0 °F 100% 30.12 in 5.0 mi NE 4.6 mph - N/A Rain Rain
10:35 PM 50.0 °F - 50.0 °F 100% 30.11 in 5.0 mi Calm Calm - N/A   Drizzle
10:55 PM 50.0 °F - 50.0 °F 100% 30.11 in 7.0 mi SW 3.5 mph - N/A   Overcast
11:15 PM 50.0 °F - 50.0 °F 100% 30.10 in 10.0 mi Calm Calm - N/A   Overcast
11:35 PM 50.0 °F - 50.0 °F 100% 30.10 in 10.0 mi West 3.5 mph - N/A Rain Light Rain
11:55 PM 50.0 °F - 50.0 °F 100% 30.10 in 10.0 mi West 5.8 mph - N/A Rain Light Rain